Location: Ferchesar
(52.6477°N, 12.4298°E)
Time: 12:36:32
(UTC+01:00)

Altair - Pass Details

Date: 08 December 2021
Orbit: 1501 x 1683 km, 47.2° (Epoch: 27 January)

Event Time Altitude Azimuth Distance (km) Brightness Sun altitude
Rises 20:52:00 0° 285° (WNW) 4,687 10.8 -43.2°
Reaches altitude 10° 20:55:33 10° 275° (W) 3,683 10.0 -43.7°
Enters shadow 21:02:07 29° 230° (SW) 2,501 8.7 -44.7°
